weather.gov     
National Weather Service

Regional Weather Roundup
NWS Homepage
This page is being discontinued on March 12, 2014.
The same data is available at this site. Please update your bookmarks.
Thank you, and we apologize for the inconvenience.
Please send an email to SR-SRH.Webmaster@noaa.gov with any concerns.


Current Version
Previous Version:    01  02  03  04  05  06  07  08  09  10  11  12  13  14  15  16  17  18  19  20  21  22  23  24  25  26  27  28  29  30  
   31  32  33  34  35  36  37  38  39  40  41  42  43  44  45  46  47  48  49  50  51  52  53  
[Printable]
289
ASUS43 KIND 021709
RWRIN

WEATHER ROUNDUP FOR INDIANA
NATIONAL WEATHER SERVICE INDIANAPOLIS IN
100 PM EDT TUE SEP 02 2014

NOTE: "FAIR" INDICATES FEW OR NO CLOUDS BELOW 12,000 FEET WITH NO
SIGNIFICANT WEATHER AND/OR OBSTRUCTIONS TO VISIBILITY.

* - STATION DOES NOT REPORT WEATHER SUCH AS PRECIPITATION OR FOG.

+ - STATION NOT QUALITY CONTROLLED BY THE NATIONAL WEATHER SERVICE.
    USE DATA WITH CAUTION...ESPECIALLY DEWPOINT AND RELATIVE
    HUMIDITY OBSERVATIONS.

INZ001>003-010>013-019-020-021800-
NORTHWEST INDIANA

CITY           SKY/WX    TMP DP  RH WIND       PRES   REMARKS
KNOX *+        PTSUNNY   73  67  82 W6        29.91F
LA PORTE +     PTSUNNY   73  68  83 SW6       29.92F
MICHIGAN CITY+ PTSUNNY   73  68  83 W3        29.91F
MONTICELLO +   CLOUDY    73  67  82 W8        29.93F
RENSSELAER +   PTSUNNY   73  70  88 SW7       29.93S
VALPARAISO     PTSUNNY   75  67  76 SW8       29.92F

$$

LMZ046-743>745-021800-
SOUTHERN LAKE MICHIGAN

STATION/POSITION TIME  TEMP WIND        PRES
                       AIR  DIR/SP/G
                 (UTC) (F)  (DEG/KT/KT) (MB)
MICHIGAN CITY    1700   71  240/  4/  5   N/A

$$

INZ004-005-014>016-021>024-021800-
NORTH CENTRAL INDIANA

CITY           SKY/WX    TMP DP  RH WIND       PRES   REMARKS
ELKHART        CLOUDY    73  68  83 SW5       29.92F
GOSHEN         LGT RAIN  72  68  87 SW7       29.91F FOG
LOGANSPORT +   CLOUDY    73  66  78 W9        29.94F
PERU/GRISSOM   CLOUDY    72  72  98 W10       29.94F
ROCHESTER +    CLOUDY    77  70  78 W7        29.93F
SOUTH BEND     PTSUNNY   75  67  76 SW6       29.91F
WARSAW +       CLOUDY    73  68  83 W8        29.92F

$$

INZ006>009-017-018-025>027-021800-
NORTHEAST INDIANA

CITY           SKY/WX    TMP DP  RH WIND       PRES   REMARKS
ANGOLA *+      CLOUDY    72  64  78 W9        29.93R
AUBURN +       CLOUDY    72  64  78 W9        29.93F
FORT WAYNE     CLOUDY    70  67  90 W9        29.94F
HUNTINGTON +   CLOUDY    70  67  90 W7        29.94F

$$

INZ028-029-035-036-043>045-051>053-021800-
WEST CENTRAL INDIANA

CITY           SKY/WX    TMP DP  RH WIND       PRES   REMARKS
GREENCASTLE +  CLOUDY    72  68  88 CALM      29.97F
LAFAYETTE      CLOUDY    73  68  84 VRB6      29.94F
TERRE HAUTE    CLOUDY    73  68  84 SW7       29.96F

$$

INZ030>032-037>040-046>048-054>057-064-065-021800-
CENTRAL INDIANA

CITY           SKY/WX    TMP DP  RH WIND       PRES   REMARKS
ANDERSON       PTSUNNY   73  66  78 W12       29.97F
CP ATTERBURY + CLOUDY    72  68  88 SW3       29.97F
COLUMBUS       LGT RAIN  70  68  94 SW7       29.97S FOG
FRANKFORT +    CLOUDY    72  72 100 SW9       29.97S
GREENWOOD *+   CLOUDY    75  70  83 SW7       29.97
INDIANAPOLIS   CLOUDY    73  66  78 W12       29.95F
-EAGLE CREEK   CLOUDY    73  65  75 W7        29.95F
KOKOMO *+      CLOUDY    72  66  83 W10       29.94F
MARION +       CLOUDY    71  67  87 W6        29.96F
MT COMFORT *+  PTSUNNY   73  72  94 W3        29.96F
SHELBYVILLE    CLOUDY    76  69  79 SW10      29.95F
ZIONSVILLE +   CLOUDY    73  65  74 W12       29.96F

$$

INZ033-034-041-042-049-050-058-059-021800-
EAST CENTRAL INDIANA

CITY           SKY/WX    TMP DP  RH WIND       PRES   REMARKS
MUNCIE         CLOUDY    72  65  78 W8        29.96F

$$

INZ060-061-067>069-081>083-085>088-021800-
SOUTHWEST INDIANA

CITY           SKY/WX    TMP DP  RH WIND       PRES   REMARKS
EVANSVILLE     PTSUNNY   80  73  79 SW9       29.95F
WASHINGTON +   CLOUDY    79  75  86 W9        29.94S

$$

INZ062-063-066-070>080-084-089>092-021800-
SOUTH CENTRAL AND SOUTHEAST INDIANA

CITY           SKY/WX    TMP DP  RH WIND       PRES   REMARKS
BLOOMINGTON    CLOUDY    72  69  90 S3        29.97F FOG

$$





U.S. Dept. of Commerce
NOAA National Weather Service
1325 East West Highway
Silver Spring, MD 20910
E-mail: w-nws.webmaster@noaa.gov
Page last modified: May 16, 2007
NATIONAL WEATHER SERVICE: for Safety, for Work, for Fun - FOR LIFE